Terminal Aerodrome Forecast
Issued by NWS Rapid City, SD

Home | Current Version | Previous Version | Graphics & Text | Print | Product List | Glossary On
Versions: 1 2 3 4 5 6 7 8 9 10 11 12 13 14 15 16 17 18 19 20 21 22 23 24 25 26 27 28 29 30 31
978
FTUS43 KUNR 211331 AAA
TAFRAP
TAF AMD
KRAP 211331Z 2114/2212 08012KT P6SM OVC005
      TEMPO 2113/2114 3SM -SN BR OVC003
     FM211400 09010KT 1SM BR OVC003
     FM211800 11013KT P6SM OVC007
     FM212300 14012KT P6SM OVC015=

USA.gov is the U.S. government's official web portal to all federal, state and local government web resources and services.